Location: Rathdrum
(47.8130°N, 116.8960°W)
Time: 10:26:31
(UTC-07:00)

Amateur Radio Satellites - All Passes

Search period start: 22 July 2014 09:56
Search period end: 23 July 2014 09:56
Location: Rathdrum, 47.8130°N, 116.8960°W

Satellite Date Start Highest point End Downlink Frequencies (MHz)
Time Altitude Azimuth
Sapphire 22 Jul 09:59:43 10:04:26 29° 40° (NE) 10:09:07 437.095 MHz 1200 baud AX-25 AFSK
Oscar 11 22 Jul 10:05:37 10:09:33 33° 96° (E) 10:13:27 145.825 FM, Beacon 2401.500 USB
FUNcube-1 22 Jul 10:07:47 10:09:46 13° 89° (E) 10:11:45 145.950 - 145.970 MHz USB
KITSAT 1 22 Jul 10:08:12 10:15:35 37° 326° (NW) 10:23:00 435.175 FM
Saudisat 1A 22 Jul 10:14:18 10:18:44 82° 309° (NW) 10:23:12 436.775 MHz
PCSat 22 Jul 10:33:46 10:39:02 48° 48° (NE) 10:44:16 145.825 MHz
Oscar 19 22 Jul 11:36:58 11:38:52 12° 53° (NE) 11:40:46 437.125 CW, 437.150 USB
Oscar 11 22 Jul 11:41:57 11:45:40 28° 294° (WNW) 11:49:22 145.825 FM, Beacon 2401.500 USB
HO-68 22 Jul 11:42:08 11:48:19 33° 303° (WNW) 11:54:29 435.675 MHz FM
FUNcube-1 22 Jul 11:42:31 11:46:39 66° 287° (WNW) 11:50:46 145.950 - 145.970 MHz USB
Sapphire 22 Jul 11:42:54 11:48:16 63° 241° (WSW) 11:53:37 437.095 MHz 1200 baud AX-25 AFSK
Saudisat 1A 22 Jul 11:55:49 11:59:00 19° 330° (NNW) 12:02:12 436.775 MHz
Oscar 16 22 Jul 12:01:57 12:05:34 20° 59° (ENE) 12:09:12 437.025 USB, Beacon 2401.1428
KITSAT 1 22 Jul 12:07:43 12:13:39 21° 354° (N) 12:19:35 435.175 FM
ITAMSAT 1 22 Jul 12:09:41 12:11:39 12° 52° (NE) 12:13:37 435.822 SSB
PCSat 22 Jul 12:17:30 12:22:18 33° 248° (WSW) 12:27:05 145.825 MHz
AO-27 22 Jul 12:25:28 12:28:39 17° 56° (NE) 12:31:50 436.795 MHz FM
Uribyol 2 22 Jul 12:29:15 12:32:41 18° 57° (ENE) 12:36:07 436.500 FM
JAS-1B 22 Jul 12:42:44 12:49:52 28° 49° (NE) 12:57:32 435.800 - 435.900 CW/SSB
AO-Echo 22 Jul 12:47:40 12:51:49 24° 61° (ENE) 12:56:01 ?
Oscar 19 22 Jul 13:12:13 13:17:17 69° 72° (ENE) 13:22:24 437.125 CW, 437.150 USB
SO-50 22 Jul 13:26:27 13:28:45 14° 109° (ESE) 13:31:04 436.795 FM
TMSAT-1 22 Jul 13:26:45 13:30:09 18° 56° (ENE) 13:33:33 436.925 FM
Oscar 16 22 Jul 13:39:20 13:44:26 69° 257° (WSW) 13:49:34 437.025 USB, Beacon 2401.1428
Gurwin Techsat 1B 22 Jul 13:44:53 13:49:29 31° 63° (ENE) 13:54:06 435.225 FM
ITAMSAT 1 22 Jul 13:45:01 13:50:12 67° 71° (ENE) 13:55:23 435.822 SSB
AO-27 22 Jul 14:02:14 14:07:29 88° 255° (WSW) 14:12:45 436.795 MHz FM
KITSAT 1 22 Jul 14:05:23 14:12:09 28° 24° (NNE) 14:18:52 435.175 FM
Uribyol 2 22 Jul 14:06:20 14:11:34 79° 256° (WSW) 14:16:48 436.500 FM
RS-15 22 Jul 14:08:37 14:18:47 44° 111° (ESE) 14:28:46 29.354 - 29.394 USB, Beacon 29.352 USB
AO-7 22 Jul 14:11:11 14:17:42 26° 48° (NE) 14:24:13 29.400 - 29.500 MHz
AO-Echo 22 Jul 14:25:00 14:30:11 59° 259° (W) 14:35:29 ?
JAS-1B 22 Jul 14:30:22 14:38:58 84° 72° (ENE) 14:48:49 435.800 - 435.900 CW/SSB
Uosat F 22 Jul 14:39:15 14:42:41 19° 58° (ENE) 14:46:07 435.120 FM
Oscar 19 22 Jul 14:53:46 14:57:09 18° 270° (W) 15:00:34 437.125 CW, 437.150 USB
TMSAT-1 22 Jul 15:04:06 15:09:25 84° 256° (WSW) 15:14:46 436.925 FM
SO-50 22 Jul 15:04:09 15:08:38 85° 308° (NW) 15:13:15 436.795 FM
Saudisat 1A 22 Jul 15:20:13 15:22:00 12° 19° (NNE) 15:23:47 436.775 MHz
Gurwin Techsat 1B 22 Jul 15:24:16 15:29:18 43° 262° (W) 15:34:23 435.225 FM
ITAMSAT 1 22 Jul 15:26:32 15:30:11 19° 270° (W) 15:33:50 435.822 SSB
JAS-2 22 Jul 15:31:45 15:33:46 11° 43° (NE) 15:35:45 435.800 - 435.900 CW/SSB, 435.910 FM
AO-27 22 Jul 15:45:22 15:47:46 13° 273° (W) 15:50:10 436.795 MHz FM
Uribyol 2 22 Jul 15:50:15 15:51:53 11° 274° (W) 15:53:32 436.500 FM
KITSAT 1 22 Jul 16:01:00 16:09:06 69° 50° (NE) 16:17:08 435.175 FM
AO-7 22 Jul 16:01:07 16:09:30 88° 69° (ENE) 16:17:56 29.400 - 29.500 MHz
UOSAT-12 22 Jul 16:04:46 16:08:58 35° 118° (ESE) 16:13:14 437.025 FM, 437.400 FM
Uosat F 22 Jul 16:15:53 16:20:56 73° 257° (WSW) 16:26:01 435.120 FM
RS-15 22 Jul 16:19:40 16:30:40 67° 316° (NW) 16:41:36 29.354 - 29.394 USB, Beacon 29.352 USB
JAS-1B 22 Jul 16:23:32 16:30:38 28° 275° (W) 16:38:29 435.800 - 435.900 CW/SSB
OPAL 22 Jul 16:38:59 16:43:50 47° 102° (ESE) 16:48:44 ?
SO-50 22 Jul 16:46:32 16:49:54 20° 330° (NNW) 16:53:19 436.795 FM
TMSAT-1 22 Jul 16:47:58 16:50:10 13° 274° (W) 16:52:23 436.925 FM
Hamsat 22 Jul 16:52:49 16:56:00 21° 64° (ENE) 16:59:11 145.90 MHz
Saudisat 1A 22 Jul 16:58:45 17:02:51 36° 42° (NE) 17:06:56 436.775 MHz
JAS-2 22 Jul 17:09:49 17:17:02 42° 63° (ENE) 17:23:54 435.800 - 435.900 CW/SSB, 435.910 FM
UOSAT-12 22 Jul 17:44:42 17:49:05 40° 318° (NW) 17:53:33 437.025 FM, 437.400 FM
KITSAT 1 22 Jul 17:57:00 18:03:59 34° 251° (WSW) 18:10:56 435.175 FM
AO-7 22 Jul 17:57:02 18:03:19 23° 270° (W) 18:09:39 29.400 - 29.500 MHz
OPAL 22 Jul 18:18:20 18:22:31 27° 300° (WNW) 18:26:44 ?
Hamsat 22 Jul 18:27:46 18:31:44 42° 262° (W) 18:35:44 145.90 MHz
SO-50 22 Jul 18:31:55 18:32:18 10° 355° (N) 18:32:40 436.795 FM
RS-15 22 Jul 18:35:43 18:45:27 35° 347° (NNW) 18:55:14 29.354 - 29.394 USB, Beacon 29.352 USB
Saudisat 1A 22 Jul 18:38:24 18:42:28 36° 241° (WSW) 18:46:29 436.775 MHz
HO-68 22 Jul 18:41:59 18:46:15 17° 46° (NE) 18:50:31 435.675 MHz FM
STRAND 1 22 Jul 18:50:54 18:55:14 27° 94° (E) 18:59:31 ?
JAS-2 22 Jul 18:54:15 19:01:53 52° 262° (W) 19:09:14 435.800 - 435.900 CW/SSB, 435.910 FM
SO-67 22 Jul 18:55:59 18:59:26 66° 75° (ENE) 19:02:54 435.3500 MHz FM
UOSAT-12 22 Jul 19:28:05 19:30:31 14° 341° (NNW) 19:32:58 437.025 FM, 437.400 FM
SO-50 22 Jul 20:12:34 20:14:57 14° 20° (NNE) 20:17:20 436.795 FM
HO-68 22 Jul 20:25:37 20:32:41 65° 67° (ENE) 20:39:47 435.675 MHz FM
STRAND 1 22 Jul 20:29:45 20:34:37 45° 292° (WNW) 20:39:28 ?
JAS-2 22 Jul 20:47:32 20:48:28 10° 281° (W) 20:49:24 435.800 - 435.900 CW/SSB, 435.910 FM
RS-15 22 Jul 20:51:32 21:01:32 38° 21° (NNE) 21:11:42 29.354 - 29.394 USB, Beacon 29.352 USB
Oscar 11 22 Jul 21:03:55 21:07:56 40° 69° (ENE) 21:11:59 145.825 FM, Beacon 2401.500 USB
FUNcube-1 22 Jul 21:07:22 21:10:23 19° 62° (ENE) 21:13:22 145.950 - 145.970 MHz USB
UOSAT-12 22 Jul 21:11:50 21:12:46 11° 6° (N) 21:13:41 437.025 FM, 437.400 FM
SO-50 22 Jul 21:52:19 21:56:46 40° 42° (NE) 22:01:17 436.795 FM
HO-68 22 Jul 22:14:51 22:20:54 29° 267° (W) 22:26:58 435.675 MHz FM
MaSat-1 22 Jul 22:37:50 22:41:30 36° 109° (ESE) 22:45:44 437.345 MHz
Oscar 11 22 Jul 22:40:52 22:44:17 23° 267° (W) 22:47:44 145.825 FM, Beacon 2401.500 USB
FUNcube-1 22 Jul 22:42:09 22:46:27 54° 260° (W) 22:50:41 145.950 - 145.970 MHz USB
UOSAT-12 22 Jul 22:51:12 22:54:45 20° 30° (NNE) 22:58:17 437.025 FM, 437.400 FM
RS-15 22 Jul 23:04:40 23:15:44 81° 50° (NE) 23:27:08 29.354 - 29.394 USB, Beacon 29.352 USB
SO-50 22 Jul 23:32:59 23:37:20 37° 242° (WSW) 23:41:44 436.795 FM
MaSat-1 23 Jul 00:15:10 00:18:56 31° 313° (NW) 00:23:14 437.345 MHz
UOSAT-12 23 Jul 00:30:51 00:35:38 81° 51° (NE) 00:40:20 437.025 FM, 437.400 FM
RS-15 23 Jul 01:17:45 01:27:05 34° 254° (WSW) 01:36:42 29.354 - 29.394 USB, Beacon 29.352 USB
PCSat 23 Jul 01:20:36 01:24:22 20° 106° (ESE) 01:28:10 145.825 MHz
Oscar 19 23 Jul 01:21:15 01:24:51 19° 90° (E) 01:28:26 437.125 CW, 437.150 USB
Lituanica SAT-1 23 Jul 01:31:01 01:33:09 56° 152° (SSE) 01:35:19 437.275 MHz beacon
Oscar 16 23 Jul 01:47:45 01:52:22 33° 96° (E) 01:56:59 437.025 USB, Beacon 2401.1428
ITAMSAT 1 23 Jul 01:55:31 01:59:02 18° 90° (E) 02:02:31 435.822 SSB
UOSAT-12 23 Jul 02:12:22 02:15:11 16° 250° (WSW) 02:17:58 437.025 FM, 437.400 FM
AO-27 23 Jul 02:12:24 02:16:42 26° 93° (E) 02:20:58 436.795 MHz FM
JAS-1B 23 Jul 02:13:29 02:21:25 28° 85° (E) 02:28:38 435.800 - 435.900 CW/SSB
Uribyol 2 23 Jul 02:16:03 02:20:31 28° 94° (E) 02:24:55 436.500 FM
ISS 23 Jul 02:17:46 02:20:49 33° 144° (SE) 02:23:53 145.800 FM
OPAL 23 Jul 02:20:31 02:24:04 20° 56° (ENE) 02:27:38 ?
Sapphire 23 Jul 02:27:45 02:33:04 60° 118° (ESE) 02:38:25 437.095 MHz 1200 baud AX-25 AFSK
AO-Echo 23 Jul 02:29:10 02:33:58 37° 96° (E) 02:38:37 ?
Oscar 19 23 Jul 02:59:33 03:04:40 66° 288° (WNW) 03:09:46 437.125 CW, 437.150 USB
PCSat 23 Jul 03:01:48 03:07:12 74° 306° (NW) 03:12:40 145.825 MHz
Lituanica SAT-1 23 Jul 03:04:10 03:06:11 31° 351° (N) 03:08:13 437.275 MHz beacon
TMSAT-1 23 Jul 03:16:50 03:21:30 30° 94° (E) 03:26:07 436.925 FM
Oscar 16 23 Jul 03:27:03 03:31:47 38° 294° (WNW) 03:36:31 437.025 USB, Beacon 2401.1428
ITAMSAT 1 23 Jul 03:33:52 03:39:03 69° 288° (WNW) 03:44:11 435.822 SSB
Gurwin Techsat 1B 23 Jul 03:36:35 03:41:51 59° 101° (E) 03:47:05 435.225 FM
AO-27 23 Jul 03:51:28 03:56:28 49° 292° (WNW) 04:01:26 436.795 MHz FM
ISS 23 Jul 03:54:06 03:57:27 61° 343° (NNW) 04:00:48 145.800 FM
Uribyol 2 23 Jul 03:55:16 04:00:09 44° 293° (WNW) 04:05:00 436.500 FM
OPAL 23 Jul 03:57:35 04:02:31 66° 255° (WSW) 04:07:27 ?
AO-7 23 Jul 03:59:47 04:06:12 24° 90° (E) 04:12:31 29.400 - 29.500 MHz
JAS-1B 23 Jul 04:03:10 04:13:04 85° 288° (WNW) 04:21:50 435.800 - 435.900 CW/SSB
AO-Echo 23 Jul 04:08:02 04:12:42 34° 295° (WNW) 04:17:13 ?
Sapphire 23 Jul 04:12:08 04:16:52 30° 319° (NW) 04:21:37 437.095 MHz 1200 baud AX-25 AFSK
Uosat F 23 Jul 04:20:37 04:24:52 27° 94° (E) 04:29:05 435.120 FM
Lituanica SAT-1 23 Jul 04:37:23 04:39:26 32° 10° (N) 04:41:28 437.275 MHz beacon
Oscar 19 23 Jul 04:41:19 04:43:04 12° 308° (NW) 04:44:48 437.125 CW, 437.150 USB
PCSat 23 Jul 04:47:38 04:51:34 20° 328° (NNW) 04:55:31 145.825 MHz
TMSAT-1 23 Jul 04:56:34 05:01:33 42° 293° (WNW) 05:06:30 436.925 FM
ITAMSAT 1 23 Jul 05:15:35 05:17:37 12° 308° (NW) 05:19:38 435.822 SSB
Gurwin Techsat 1B 23 Jul 05:17:17 05:21:27 24° 300° (WNW) 05:25:35 435.225 FM
MaSat-1 23 Jul 05:17:51 05:18:05 10° 26° (NNE) 05:18:19 437.345 MHz
ISS 23 Jul 05:31:18 05:34:32 41° 3° (N) 05:37:46 145.800 FM
AO-7 23 Jul 05:51:35 05:59:59 86° 291° (WNW) 06:08:18 29.400 - 29.500 MHz
JAS-1B 23 Jul 05:54:26 06:02:12 28° 311° (NW) 06:09:29 435.800 - 435.900 CW/SSB
Uosat F 23 Jul 05:59:04 06:03:50 44° 293° (WNW) 06:08:35 435.120 FM
Sapphire 23 Jul 06:00:17 06:02:09 12° 344° (NNW) 06:04:01 437.095 MHz 1200 baud AX-25 AFSK
JAS-2 23 Jul 06:02:06 06:06:50 22° 87° (E) 06:11:11 435.800 - 435.900 CW/SSB, 435.910 FM
STRAND 1 23 Jul 06:09:58 06:14:59 55° 70° (ENE) 06:20:01 ?
Hamsat 23 Jul 06:10:06 06:13:44 26° 94° (E) 06:17:21 145.90 MHz
Lituanica SAT-1 23 Jul 06:10:16 06:12:25 48° 209° (SSW) 06:14:33 437.275 MHz beacon
KITSAT 1 23 Jul 06:34:24 06:40:54 28° 106° (ESE) 06:47:24 435.175 FM
MaSat-1 23 Jul 06:52:22 06:57:06 32° 48° (NE) 07:01:50 437.345 MHz
ISS 23 Jul 07:08:09 07:11:32 83° 21° (NNE) 07:14:54 145.800 FM
AO-7 23 Jul 07:45:19 07:51:44 26° 313° (NW) 07:58:08 29.400 - 29.500 MHz
Hamsat 23 Jul 07:45:54 07:49:45 34° 292° (WNW) 07:53:38 145.90 MHz
JAS-2 23 Jul 07:46:13 07:52:42 68° 289° (WNW) 07:58:22 435.800 - 435.900 CW/SSB, 435.910 FM
Sapphire 23 Jul 07:47:13 07:48:16 11° 11° (N) 07:49:18 437.095 MHz 1200 baud AX-25 AFSK
SO-67 23 Jul 07:49:37 07:53:01 49° 100° (E) 07:56:24 435.3500 MHz FM
STRAND 1 23 Jul 07:50:31 07:54:31 23° 268° (W) 07:58:32 ?
PCSat 23 Jul 08:20:46 08:23:20 13° 21° (NNE) 08:25:54 145.825 MHz
KITSAT 1 23 Jul 08:27:24 08:35:31 80° 307° (NW) 08:43:41 435.175 FM
MaSat-1 23 Jul 08:29:35 08:34:45 52° 247° (WSW) 08:39:47 437.345 MHz
ISS 23 Jul 08:45:21 08:47:58 21° 221° (SW) 08:50:34 145.800 FM
Saudisat 1A 23 Jul 08:48:17 08:51:54 25° 115° (ESE) 08:55:31 436.775 MHz
SO-67 23 Jul 09:23:56 09:25:43 14° 297° (WNW) 09:27:30 435.3500 MHz FM
Sapphire 23 Jul 09:29:24 09:33:47 24° 37° (NE) 09:38:09 437.095 MHz 1200 baud AX-25 AFSK
JAS-2 23 Jul 09:33:01 09:36:26 15° 312° (NW) 09:39:40 435.800 - 435.900 CW/SSB, 435.910 FM
HO-68 23 Jul 09:37:05 09:44:00 49° 100° (E) 09:50:51 435.675 MHz FM
